Regional Weather Roundup
Issued by NWS

Home | Current Version | Previous Version | Graphics & Text | Print | Product List | Glossary On
Versions: 1 2 3 4 5 6 7 8 9 10 11 12 13 14 15 16 17 18 19 20 21 22 23 24 25 26 27 28 29 30 31 32 33 34 35 36 37 38 39 40 41 42 43 44 45 46 47 48 49 50
000
ASUS45 KCYS 291010
RWRWY

WYOMING REGIONAL WEATHER ROUNDUP
NATIONAL WEATHER SERVICE CHEYENNE WY
400 AM MDT FRI AUG 29 2014

NOTE:  "FAIR" INDICATES FEW OR NO CLOUDS BELOW 12,000 FEET
WITH NO SIGNIFICANT WEATHER AND/OR OBSTRUCTIONS TO VISIBILITY.

WYZ001-291100-
YELLOWSTONE NATIONAL PARK

CITY           SKY/WX    TMP DP  RH WIND       PRES   REMARKS
LK YELLOWSTONE   N/A     45  44  97 CALM      30.30S
W YELLOWSTONE  NOT AVBL

$$
WYZ002>013-054>058-071-098>099-291100-
NORTHERN WYOMING

CITY           SKY/WX    TMP DP  RH WIND       PRES   REMARKS
JACKSON        PTCLDY    50  45  81 S6        30.21S
CODY           CLOUDY    59  48  67 S3        30.13S
GREYBULL       CLOUDY    64  51  62 CALM      30.05F
WORLAND        CLOUDY    62  52  69 N15       30.07S
SHERIDAN       LGT RAIN  62  52  69 NW12      30.05R
BUFFALO        CLOUDY    61  49  64 N25G37    30.03F
GILLETTE       MOCLDY    64  48  56 NW17G28   30.01R
HULETT         FAIR      59  50  72 MISG      29.96
NEWCASTLE      FAIR      54  46  76 N9        29.99

$$
WYZ014>020-022>026-101>103-291100-
CENTRAL WYOMING

CITY           SKY/WX    TMP DP  RH WIND       PRES   REMARKS
BIG PINEY      CLEAR     44  40  85 N6        30.23F
PINEDALE       SUNNY     41  41 100 W5        30.24S
DUBOIS         FAIR      46  39  76 NW8       30.22S
LANDER         MOCLDY    59  44  57 NE10      30.12R
RIVERTON       MOCLDY    61  42  49 NE13      30.10S
CASPER         PTCLDY    52  42  69 W9        30.04F
DOUGLAS        MOCLDY    50  48  93 N3        30.04S

$$
WYZ021-027>030-104>119-291100-
SOUTHERN WYOMING

CITY           SKY/WX    TMP DP  RH WIND       PRES   REMARKS
EVANSTON       CLEAR     51  40  65 S8        30.26F
KEMMERER       SUNNY     50  41  71 CALM      30.27S
FORT BRIDGER   FAIR      56  40  55 W9        30.28R
ROCK SPRINGS   CLEAR     55  42  61 W12       30.22S
DIXON          FAIR      50  47  90 SE6       30.25F
RAWLINS        CLOUDY    58  43  57 SW13      30.19R
SARATOGA       FAIR      50  43  76 SE5       30.22S
LARAMIE        MOCLDY    46  43  89 E6        30.20S
CHEYENNE       CLEAR     51  42  71 NW8       30.11F
TORRINGTON     CLEAR     51  49  92 CALM      29.99R
PINE BLUFFS    FAIR      48  45  87 W3        30.06S

$$



USA.gov is the U.S. government's official web portal to all federal, state and local government web resources and services.